Flag for Germany Weather past 2 weeks in Leipzig, Saxony, Germany

Now
64 °F

Sunny.


Feels Like: 64 °F
Forecast: 52 / 68 °F
Wind: 14 mph from Southwest

Location: Leipzig-Schkeuditz

Current Time: May 28, 2015 at 12:12:39 PM

Latest Report: May 28, 2015 at 11:50 AM


Visibility: 10 mi

Pressure: 30.01 "Hg

Humidity: 43%

Dew point: 41 °F

Location of LeipzigLocation

Historic Weather in Leipzig — Graph

°F

Leipzig temperature yesterday

Maximum temperature yesterday: 55 °F (at 1:20 PM)
Minimum temperature yesterday: 43 °F (at 4:50 AM)
Average temperature yesterday: 51 °F

Past Weeks' High & Low Weather Summary

 TemperatureHumidityPressure
High72 °F (May 18, 3:20 PM)100% (May 15, 5:50 AM)30.33 "Hg (May 15, 5:50 AM)
Low39 °F (May 15, 4:50 AM)28% (May 19, 4:20 PM)29.62 "Hg (May 19, 1:50 AM)
Average55 °F64%30.03 "Hg
* Reported May 13 10:20 AM — May 28 10:50 AM, Leipzig, Weather by CustomWeather, © 2015

Note: Actual official high and low records may vary slightly from our data, if they occured in-between our weather recording intervals... More about our weather records

Advertising

Leipzig weather history for previous 24 hours

 ConditionsComfort  
Time TempWeatherWind HumidityBarometerVisibility
10:50 AM
Thu, May 28
59 °FSunny.13 mph48%30.01 "Hg10 mi
10:20 AM57 °FSunny.14 mph51%30.04 "Hg10 mi
9:50 AM57 °FSunny.14 mph51%30.04 "Hg10 mi
9:20 AM54 °FSunny.14 mph63%30.04 "Hg10 mi
8:50 AM54 °FSunny.13 mph58%30.04 "Hg10 mi
8:20 AM52 °FSunny.12 mph62%30.04 "Hg10 mi
7:50 AM50 °FSunny.10 mph67%30.04 "Hg10 mi
7:20 AM48 °FSunny.9 mph71%30.04 "Hg10 mi
6:50 AM46 °FSunny.9 mph76%30.04 "Hg10 mi
6:20 AM46 °FSunny.9 mph76%30.04 "Hg10 mi
5:50 AM45 °FClear.10 mph76%30.07 "Hg10 mi
5:20 AM45 °FClear.9 mph81%30.07 "Hg10 mi
4:50 AM45 °FClear.8 mph81%30.07 "Hg10 mi
4:20 AM45 °FClear.9 mph81%30.07 "Hg10 mi
3:50 AM45 °FClear.9 mph81%30.07 "Hg10 mi
3:20 AM45 °FClear.10 mph87%30.07 "Hg10 mi
2:50 AM45 °FClear.8 mph87%30.09 "Hg10 mi
2:20 AM45 °FClear.8 mph87%30.09 "Hg10 mi
1:50 AM45 °FClear.8 mph81%30.09 "Hg10 mi
1:20 AM45 °FClear.7 mph87%30.09 "Hg10 mi
12:50 AM46 °FClear.8 mph82%30.12 "Hg10 mi
12:20 AM46 °FClear.6 mph82%30.12 "Hg10 mi
11:50 PM
Wed, May 27
48 °FClear.7 mph76%30.12 "Hg10 mi
11:20 PM50 °FClear.8 mph71%30.12 "Hg10 mi
10:50 PM50 °FClear.8 mph76%30.12 "Hg10 mi
10:20 PM52 °FPassing clouds.8 mph72%30.12 "HgN/A
9:50 PM52 °FPartly sunny.7 mph72%30.12 "HgN/A
9:20 PM54 °FPartly sunny.5 mph63%30.12 "HgN/A
8:50 PM54 °FPartly sunny.5 mph67%30.12 "HgN/A
8:20 PM54 °FPartly sunny.6 mph63%30.12 "HgN/A
7:50 PM55 °FPartly sunny.6 mph55%30.15 "HgN/A
7:20 PM55 °FPartly sunny.6 mph55%30.15 "HgN/A
6:50 PM55 °FBroken clouds.9 mph59%30.15 "HgN/A
6:20 PM55 °FPartly sunny.8 mph59%30.15 "HgN/A
5:50 PM55 °FPartly sunny.8 mph59%30.15 "HgN/A
5:20 PM55 °FPartly sunny.9 mph59%30.15 "HgN/A
4:50 PM55 °FPartly sunny.12 mph63%30.15 "HgN/A
4:20 PM55 °FPartly sunny.10 mph63%30.15 "HgN/A
3:50 PM54 °FPartly sunny.13 mph67%30.15 "HgN/A
3:20 PM55 °FBroken clouds.14 mph59%30.15 "HgN/A
2:50 PM55 °FBroken clouds.12 mph55%30.15 "HgN/A
2:20 PM55 °FPartly sunny.13 mph59%30.15 "HgN/A
1:50 PM54 °FPartly sunny.16 mph58%30.18 "HgN/A
1:20 PM55 °FPartly sunny.12 mph63%30.18 "HgN/A
12:50 PM52 °FPartly sunny.15 mph67%30.18 "HgN/A
12:20 PM54 °FBroken clouds.16 mph63%30.18 "HgN/A
Weather by CustomWeather, © 2015

See weather overviewHow to use our weather pages